User: anonymous   Login
Location: Waldport
(44.4270°N, 124.0680°W)
Time: 00:17:44
(UTC-08:00)
Language:

Meteor 1-11 - Orbit

View from above orbital plane
View from above orbital plane
View from above satellite
View from above satellite

Ground track
Ground track

The orbit data is extracted from the following two-line orbital elements,

1  5917U 72022A   19048.93215867 +.00000186 +00000-0 +10062-3 0  9995
2  5917 081.2224 011.1645 0031578 325.1535 034.7567 14.08660928407680
Epoch (UTC): 17 February 2019 22:22:18
Eccentricity: 0.0031578
inclination: 81.2224°
perigee height: 841 km
apogee height: 887 km
right ascension of ascending node: 11.1645°
argument of perigee: 325.1535°
revolutions per day: 14.08660928
mean anomaly at epoch: 34.7567°
orbit number at epoch: 40768

The dashed part of the orbit path shows where the satellite is in the earth's shadow,  

DLR